Regional Weather Roundup
Issued by NWS Upton, NY

Current Version | Previous Version | Graphics & Text | Print | Product List | Glossary Off
Versions: 1 2 3 4 5 6 7 8 9 10 11 12 13 14 15 16 17 18 19 20 21 22 23 24 25 26 27 28 29 30 31 32 33 34 35 36 37 38 39 40 41 42 43 44 45 46 47 48 49 50

000
ASUS41 KOKX 291605
RWROKX

REGIONAL WEATHER ROUNDUP
NATIONAL WEATHER SERVICE NEW YORK NY
1200 PM EDT FRI AUG 29 2014

NOTE: "FAIR" INDICATES FEW OR NO CLOUDS BELOW 12,000 FEET WITH NO
SIGNIFICANT WEATHER AND/OR OBSTRUCTIONS TO VISIBILITY.

NYZ071-072-176-178-NJZ106-104-291700-
NEW YORK CITY METRO AREA


CITY           SKY/WX    TMP DP  RH WIND       PRES   REMARKS
CENTRAL PARK   PTSUNNY   73  49  42 MISG      30.22R
LAGUARDIA APRT MOSUNNY   74  49  41 NE10      30.19R
KENNEDY INTL   MOSUNNY   76  47  35 E6        30.19S
NEWARK/LIBERTY MOSUNNY   75  48  38 VRB3      30.19S
BRNX BOT. GARD   N/A     72  48  43 SE10      30.21R
TETERBORO      MOSUNNY   75  48  38 N6        30.18S
$$

NYZ177-179-078>081-291700-
LONG ISLAND NEW YORK

CITY           SKY/WX    TMP DP  RH WIND       PRES   REMARKS
FARMINGDALE    SUNNY     72  50  45 VRB5      30.19S
ISLIP          MOSUNNY   73  49  42 NE8       30.17R
SHIRLEY        MOSUNNY   75  49  39 N10       30.19S
WESTHAMPTON    MOSUNNY   73  51  46 VRB3      30.20R
MONTAUK POINT    N/A     70  53  54 NE7       30.20S
$$

NYZ052-065-067-291700-
HUDSON VALLEY

CITY           SKY/WX    TMP DP  RH WIND       PRES   REMARKS
WHITE PLAINS   MOSUNNY   72  49  44 CALM      30.19S
NEWBURGH       MOSUNNY   72  55  56 VRB6      30.22S
MONTGOMERY     SUNNY     73  50  44 VRB3      30.20F
POUGHKEEPSIE   MOSUNNY   72  53  51 VRB6      30.19F
ALBANY         MOSUNNY   71  54  54 N5        30.21F
$$

NJZ001-105-106-008-010-013-015-019>022-104-291700-
NEW JERSEY

CITY           SKY/WX    TMP DP  RH WIND       PRES   REMARKS
NEWARK/LIBERTY MOSUNNY   75  48  38 VRB3      30.19S
TETERBORO      MOSUNNY   75  48  38 N6        30.18S
CALDWELL       SUNNY     73  49  42 N5        30.19S
MORRISTOWN     SUNNY     75  50  41 NE6       30.19S
SOMERVILLE     SUNNY     76  48  37 VRB3      30.18S
LINDEN         FAIR      79  50  36 N5        30.21S
SUSSEX         LGT RAIN  73  52  47 VRB5      30.20S
ANDOVER          N/A     70  51  51 NE3       30.21S
TRENTON        SUNNY     74  49  41 N6        30.19S
MILLVILLE      MOSUNNY   74  51  44 CALM      30.20R
ATLANTIC CITY  SUNNY     74  58  57 NE7       30.19S
WRIGHTSTOWN    SUNNY     73  54  51 VRB3      30.18R
TOMS RIVER     MOSUNNY   72  54  53 CALM      30.20R
BELMAR         MOSUNNY   73  52  46 E6        30.19S
$$

PAZ047>061-062-071-291700-
EASTERN PENNSYLVANIA

CITY           SKY/WX    TMP DP  RH WIND       PRES   REMARKS
PHILADELPHIA   PTSUNNY   75  48  38 VRB3      30.20S
ALLENTOWN      MOSUNNY   74  52  46 VRB3      30.20F
SCRANTON       MOSUNNY   69  52  54 NW5       30.21F
$$

CTZ002-004>006-009-010-012-RIZ004-006-007-MAZ004-011-015-291700-
SOUTHERN NEW ENGLAND
 IN CT

CITY           SKY/WX    TMP DP  RH WIND       PRES   REMARKS
BRADLEY INTL   MOSUNNY   74  51  44 N5        30.18F
HARTFORD       SUNNY     71  52  50 VRB3      30.18F
DANBURY        SUNNY     71  49  45 E5        30.21S
WTRBRY/OXFORD  MOSUNNY   70  54  56 CALM      30.22R
BRIDGEPORT     MOSUNNY   73  52  47 E10       30.18S
MERIDEN        MOSUNNY   75  48  38 VRB6      30.18F
NEW HAVEN      MOSUNNY   76  50  40 VRB6      30.18S
CHESTER        FAIR      70  50  49 CALM      30.20R
GROTON         MOSUNNY   70  55  59 S7        30.17S
WILLIMANTIC    PTSUNNY   72  49  44 MISG      30.18F

 IN RI

CITY           SKY/WX    TMP DP  RH WIND       PRES   REMARKS
PROVIDENCE     PTSUNNY   73  50  44 CALM      30.19R
BLOCK ISLAND   SUNNY     70  54  56 NE8       30.19S
WESTERLY       MOSUNNY   73  52  47 SE10      30.19R

 IN MA

CITY           SKY/WX    TMP DP  RH WIND       PRES   REMARKS
BOSTON         MOSUNNY   69  55  60 E14       30.19R
WORCESTER      PTSUNNY   69  49  48 CALM      30.20S
WESTFIELD      SUNNY     72  52  49 CALM      30.18F
PROVINCETOWN   SUNNY     68  54  60 NE12G20   30.19S
NANTUCKET      SUNNY     70  53  54 NE20      30.16R
$$

ANZ330-335-338-340-345-350-353-355-291700-
COASTAL MARINE OBSERVATIONS


STATION/POSITION TIME  SKY/WX   TEMP    WIND        PRES    VSBY  WAVE
                                AIR SEA DIR/SP/G                  HT/PER
                 (UTC)          (F)     (DEG/KT/KT) (MB)    (MI)  (FT/S)
NY HARB ENTRANCE NOT AVBL
4S FIRE IS       NOT AVBL
23SW MTP         1600                                 N/A           3/11
HUDSON CANYON    1600            69 73   40/ 10/ 12 1021.5          4/10
EXECUTION ROCKS  1600            70 74   90/  8/ 10   N/A
WESTERN LI SOUND 1600            69     120/  6/  8   N/A           1
CENTRAL LI SOUND 1600            68 71   90/  6/  8   N/A           1/ 2
EASTERN LI SOUND 1500            71 69   CALM  /  2   N/A
ROBBINS REEF     1600            70      CALM  /  2   N/A
$$


>>>>>>>>>>>>>>>>>>>>>>>>>>>> KEY <<<<<<<<<<<<<<<<<<<<<<<<<<<
>                                                          <
>     SKY/WX - SKY CONDITION/PRESENT WEATHER               <
>     TMP    - TEMPERATURE IN FAHRENHEIT                   <
>     DP     - DEWPOINT IN FAHRENHEIT                      <
>     RH     - RELATIVE HUMIDITY IN PERCENT                <
>     WIND   - DIRECTION AND SPEED IN MPH                  <
>     PRES   - MEAN SEA LEVEL PRESSURE IN INCHES OF HG     <
>     WCI    - WIND CHILL INDEX                            <
>     VSB    - VISIBILITY IN MILES                         <
>     HX     - HEAT INDEX                                  <
>     TC     - TEMPERATURE IN CELSIUS                      <
>     VRB    - VARIABLE WIND DIRECTION                     <
>                                                          <
>>>>>>>>>>>>>>>>>>>>>>>>>>>> KEY <<<<<<<<<<<<<<<<<<<<<<<<<<<





USA.gov is the U.S. government's official web portal to all federal, state and local government web resources and services.